Showing default

ESSA 6 (TOS-D), 3035

Orbit data source: Space-Track

ESSA 6 (TOS-D), 3035 is a payload satellite owned by ESSA (US) in SSO that was launched on Fri, 10 Nov 1967 UTC via a THOR DELTA E1 launch vehicle from the Air Force Western Test Range (AFWTR). Payload-class satellites include a variety of spacecraft equipped with specific instruments for various scientific and technological missions. These include communications satellites like Starlink; space stations such as the ISS; scientific satellites like the Hubble; Earth observation satellites from companies like Planet Labs, Umbra, and HawkEye 360; GPS; miniature CubeSats for education and research; and military/defense satellites.

Loading next visibility...
Identifier
3035, 1967-114A
Orbit
SSO
Country
Flag of USUS
Related business
Manufacturer
RCA/East Windsor
Mission
Non-operational spacecraft
Bus & Motor
TIROS I, Unknown motor
Mass
135 kg wet, 135 kg dry
Launch date (UTC)
1967-11-10 (58 years ago)
Launch vehicle
THOR DELTA E1
Launch site
Air Force Western Test Range (AFWTR)
Object type
Payload
Rocket body
Debris
Shape & HBR
Unknown
Radar Cross Section
Medium (>0.1 m² and <1 m²)

Expand to show TLE details & history
Last TLE update: 8 hours ago

TLE from 8 hours ago
0 ESSA 6 (TOS-D)
1 03035U 67114A   26126.24089427 -.00000021  00000-0  15992-3 0  9996
2 03035 102.0110 230.6065 0048798 203.2218 185.1434 12.54249033677351
Epoch: 2026-05-06T05:46Z
TLE epoch observation values (Epoch: 2026-05-06T05:46:53.264Z)
Latitude
27.68156°
Longitude
-86.59646°
Altitude
1,487.906 km
Speed
7.105 km/s
True Right ascension
14h 56m 55s
True Declination
27° 33' 12"
Sunlit
Object was in full shadow at epoch
Visualization orbit readout
Latitude
Unknown
Longitude
Unknown
Altitude
Unknown
Speed
Unknown
Apparent Right ascension
Unknown
Apparent Declination
Unknown
Sunlit
N/A
Visualization observer readout
Local Sidereal Time
21:38:09
Azimuth
Unknown
Elevation
Unknown
Doppler factor
Unknown
Orbital elements
Apogee altitude
1,482.501 km
Perigee altitude
1,406.157 km
Semi-major axis
7,822.466 km
Eccentricity
0.00488
Inclination
102.011°
RAAN
230.6065°
Arg. of periapsis
203.2218°
True anomaly
185.09357°
Mean anomaly
185.1434°
Eccentric anomaly
185.11846°
Mean motion
3.13709 °/min
Orbital period
114.76 mins
BSTAR
0.00015992
Loading maneuver chart data...
Computing Atmospheric mass density...
Loading historical data...
Loading historical data...
Loading historical data...
Loading historical data...
Loading historical data...
Loading historical data...
Loading historical data...
Other satellites on launch #114 in the year 1967 (1967-11-10 UTC)

Documentation

Showing up to 5 results
|